Location: Unspecified
(0.0000°N, 0.0000°E)
Time: 21:01:35
(UTC+00:00)

Tiros 1 despin weight - Pass Details

Date: 28 May 2022
Orbit: 591 x 639 km, 48.2° (Epoch: 25 June)

Event Time Altitude Azimuth Distance (km) Brightness Sun altitude
Rises 02:20:51 0° 318° (NW) 2,807 - -48.9°
Reaches altitude 10° 02:23:07 10° 316° (NW) 1,912 - -48.5°
Maximum altitude 02:27:30 74° 231° (SW) 620 - -47.6°
Drops below altitude 10° 02:31:56 10° 146° (SE) 1,941 - -46.6°
Sets 02:34:15 0° 144° (SE) 2,854 - -46.1°
